Location: Poprad
(49.0500°N, 20.3000°E)
Time: 07:27:39
(UTC+02:00)

QB50P2 - Visible Passes

Search period start: 16 April 2024 00:00
Search period end: 26 April 2024 00:00
Orbit: 568 x 582 km, 98.0° (Epoch: 15 April)

Date Brightness Start Highest point End Pass type
(mag) Time Alt. Az. Time Alt. Az. Time Alt. Az.
16 Apr ? 02:24:57 10° NE 02:28:11 22° E 02:28:52 21° ESE visible
16 Apr ? 03:59:41 10° N 04:03:32 40° WNW 04:05:07 28° WSW visible
17 Apr ? 02:28:23 10° NE 02:31:44 24° E 02:32:32 22° ESE visible
17 Apr ? 04:03:14 10° N 04:07:02 37° WNW 04:08:47 25° WSW visible
18 Apr ? 02:31:48 10° NE 02:35:15 25° E 02:36:11 23° ESE visible
18 Apr ? 04:06:45 10° N 04:10:31 34° WNW 04:12:25 22° WSW visible
19 Apr ? 02:35:11 10° NE 02:38:45 27° E 02:39:48 24° ESE visible
19 Apr ? 04:10:17 10° N 04:13:58 32° WNW 04:16:03 20° WSW visible
20 Apr ? 02:38:35 10° NE 02:42:14 29° E 02:43:24 25° SE visible
20 Apr ? 04:13:47 10° N 04:17:24 30° WNW 04:19:39 18° WSW visible
21 Apr ? 02:41:58 10° NNE 02:45:41 32° E 02:46:59 26° SE visible
21 Apr ? 04:17:16 10° N 04:20:48 28° WNW 04:23:13 16° WSW visible
22 Apr ? 02:45:20 10° NNE 02:49:08 34° E 02:50:33 26° SE visible
22 Apr ? 04:20:45 10° N 04:24:12 26° WNW 04:26:47 15° WSW visible
23 Apr ? 02:48:41 10° NNE 02:52:32 37° E 02:54:05 27° SE visible
23 Apr ? 04:24:12 10° N 04:27:34 25° WNW 04:30:20 13° WSW visible
24 Apr ? 02:52:02 10° NNE 02:55:56 40° E 02:57:36 27° SSE visible
24 Apr ? 04:27:38 10° N 04:30:55 23° WNW 04:33:50 12° WSW visible
25 Apr ? 02:55:21 10° NNE 02:59:18 43° E 03:01:07 27° SSE visible
25 Apr ? 04:31:04 10° NNW 04:34:15 22° WNW 04:37:20 10° WSW visible
